Regional Weather Roundup
Issued by NWS

Home | Current Version | Previous Version | Text Only | Print | Product List | Glossary Off
Versions: 1 2 3 4 5 6 7 8 9 10 11 12 13 14 15 16 17 18 19 20 21 22 23 24 25 26 27 28 29 30 31 32 33 34 35 36 37 38 39 40 41 42 43 44 45 46 47 48 49 50

000
ASUS43 KMKX 011400
RWRWI

WISCONSIN REGIONAL WEATHER ROUNDUP
NATIONAL WEATHER SERVICE MILWAUKEE/SULLIVAN WI
900 AM CDT WED JUL 01 2015

NOTE: "FAIR" INDICATES FEW OR NO CLOUDS BELOW 12,000 FEET WITH NO
SIGNIFICANT WEATHER AND/OR OBSTRUCTIONS TO VISIBILITY.

WIZ001-002-006>008-014>016-023>028-011500-
NORTHWEST WISCONSIN

CITY           SKY/WX    TMP DP  RH WIND       PRES   REMARKS
SUPERIOR ARPT  PTSUNNY   58  53  84 CALM      30.02F
ASHLAND        SUNNY     57  53  86 CALM      30.04S
HAYWARD        MOSUNNY   57  50  77 CALM      30.03F
SIREN          PTSUNNY   59  47  64 SE3       30.03R
CUMBERLAND     PTSUNNY   55  46  71 SE5       30.03S
RICE LAKE      PTSUNNY   57  46  67 CALM      30.04S
CHETEK         PTSUNNY   56  49  77 CALM      30.03S
LADYSMITH      MOSUNNY   56  49  77 CALM      30.05S
EAU CLAIRE     NOT AVBL
MENOMONIE      PTSUNNY   58  50  75 E5        30.03R
NEW RICHMOND   CLOUDY    58  49  73 E6        30.03R
OSCEOLA        CLOUDY    59  49  69 E5        30.05R
$$

WIZ003>005-009-010-017-018-011500-
NORTH CENTRAL WISCONSIN

CITY           SKY/WX    TMP DP  RH WIND       PRES   REMARKS
MANITOWISH WTR SUNNY     53  45  74 CALM      30.04S
ARBOR VITAE    SUNNY     57  47  70 N7        30.03S
WOODRUFF       SUNNY     57  47  70 N7        30.03S
RHINELANDER    SUNNY     55  43  63 NE9       30.03S
EAGLE RIVER    SUNNY     52  44  73 N7        30.02F
LAND O LAKES   SUNNY     53  42  67 N8        30.04S
PHILLIPS       PTSUNNY   54  46  73 N3        30.04R
TOMAHAWK       SUNNY     52  46  80 N5        30.04R
MEDFORD        SUNNY     53  45  75 NE5       30.03S
MERRILL        SUNNY     54  46  75 N6        30.03S
$$

WIZ029-030-035-036-043>047-011500-
CENTRAL WISCONSIN

CITY           SKY/WX    TMP DP  RH WIND       PRES   REMARKS
WAUSAU         SUNNY     57  44  62 N7        30.01R
MOSINEE        SUNNY     55  46  71 N5        30.02S
MARSHFIELD     SUNNY     58  43  57 NE8       30.02S
STEVENS POINT  SUNNY     54  43  67 N6        30.01S
WAUPACA        SUNNY     57  45  63 N8        30.01R
WAUTOMA        NOT AVBL
WISC RAPIDS    SUNNY     59  44  57 N9        30.02S
CAMP DOUGLAS   NOT AVBL
$$

WIZ011>013-019>022-031-037>040-048>050-011500-
NORTHEAST WISCONSIN

CITY           SKY/WX    TMP DP  RH WIND       PRES   REMARKS
ANTIGO         SUNNY     53  46  75 N12       30.01S
SHAWANO        SUNNY     56  46  69 NE8       30.00R
OCONTO         CLOUDY    50  47  90 N9        29.99R
STURGEON BAY   CLOUDY    52  46  82 N12       30.00R
GREEN BAY      MOSUNNY   56  47  71 NE7       29.99R
MANITOWOC      NOT AVBL
APPLETON       MOSUNNY   54  45  71 N9        29.99S
CLINTONVILLE   SUNNY     54  43  66 N9        30.00R
OSHKOSH        SUNNY     57  46  66 NW6       29.98S
$$

WIZ032>034-041-042-053>061-011500-
SOUTHWEST WISCONSIN

CITY           SKY/WX    TMP DP  RH WIND       PRES   REMARKS
LA CROSSE      SUNNY     61  49  64 E10       30.00S
SPARTA         SUNNY     58  49  72 CALM      30.02R
VIROQUA        SUNNY     58  49  73 E9        30.01R
BOSCOBEL       SUNNY     60  50  69 NE6       30.00R
PRAIRIE DU CHI SUNNY     59  51  74 NE8       29.99S
PLATTEVILLE    CLOUDY    60  57  89 NE9       29.98S
$$

WIZ056-057-062-063-064-067-068-011500-
SOUTH CENTRAL WISCONSIN

CITY           SKY/WX    TMP DP  RH WIND       PRES   REMARKS
REEDSBURG      SUNNY     58  46  66 NE6       29.99S
BARABOO/DELLS  MOSUNNY   57  44  62 NE3       30.00S
LONE ROCK      NOT AVBL
MINERAL POINT  PTSUNNY   61  54  77 NE8       29.98S
MADISON        MOSUNNY   61  45  55 N3        29.99R
MIDDLETON      MOSUNNY   60  45  57 NE7       30.00S
WATERTOWN      SUNNY     58  47  66 NW5       29.98S
MONROE         CLOUDY    59  55  88 CALM      29.98S
JANESVILLE     CLOUDY    61  57  88 CALM      29.97S
$$

WIZ051-052-058>065-066-070>072-011500-
SOUTHEAST WISCONSIN

CITY           SKY/WX    TMP DP  RH WIND       PRES   REMARKS
MILWAUKEE      MOSUNNY   61  46  57 NW7       29.98S
WAUKESHA       MOSUNNY   55  46  71 NW7       29.98S
MILWAUKEE/TIMM SUNNY     57  46  67 NW6       29.98S
RACINE         SUNNY     61  49  64 NW6       29.99S
BURLINGTON     CLOUDY    57  52  81 N6        29.97S
KENOSHA        MOSUNNY   61  51  70 VRB7      29.97S
FOND DU LAC    MOSUNNY   59  48  67 NW7       29.99R
SHEBOYGAN      CLOUDY    57  49  74 W6        29.97S
WEST BEND      SUNNY     55  46  71 NW5       29.98R
JUNEAU         SUNNY     56  46  70 NW6       29.99S
$$

LSZ147-162-011500-
LAKE SUPERIOR

STATION/POSITION TIME  TEMP    WIND        PRES    WAVE
                       AIR SEA DIR/SP/G            HT/PER
                 (UTC) (F)     (DEG/KT/KT) (MB)    (FT/S)
W MID LAKE BUOY  1250   43 38  200/  6/  6 1017.6R   1/ 5
DEVILS ISLAND    1300   54     120/  1/  3 1017.4R
SAXON HARBOR     1340   57        CALM     1017.3R
$$

LMZ867-665-643>646-011500-
LAKE MICHIGAN

STATION/POSITION TIME  TEMP    WIND        PRES    WAVE
                       AIR SEA DIR/SP/G            HT/PER
                 (UTC) (F)     (DEG/KT/KT) (MB)    (FT/S)
CHAMBERS ISLAND  1300   51     330/ 11/ 16 1015.2R
N MID LAKE BUOY  1250   45 40  330/ 10/ 12 1014.2R   2/ 4
NORTHPORT PIER   1300   52     340/ 16/ 20 1014.9R
SISTER BAY       1244   51     340/ 16/ 19   N/A
ALGOMA LAKESHORE 1310          340/  9/ 12   N/A
KEWAUNEE LAKESHO 1300   53     340/  6/ 10 1013.9R
SHEBOYGAN LAKESH 1300   54     290/  4/  6 1014.8R
PORT WASHINGTON  1300   58     350/  4/  7 1015.6
ATWATER BUOY     1300   57     310/  6/  8 1016.2R
MILWAUKEE LAKESH 1300   57     320/  4/  8   N/A
KENOSHA   LAKESH 1300   57     350/  4/  5 1014.9S
$$

TC  - TEMPERATURE IN CELSIUS
VSB - VISIBILITY IN STATUTE MILES
WCI - WIND CHILL INDEX
HX  - HEAT INDEX



USA.gov is the U.S. government's official web portal to all federal, state and local government web resources and services.